[[{"header":{"parameterUnit":"m.s-1","parameterCategory":1,"la1":30.2991,"la2":30.254,"lo1":-89.0895,"lo2":-89.0444,"dy":0.0017,"dx":0.0017,"nx":28,"ny":28,"refTime":"2024-06-08T09:00:00:Z","depth":0,"parameterNumber":2,"parameterNumberName":"U-component_of_WINDS"},"data":[0,0,0,0,0,0,0,0,0,0,0,0,0,0,0,0,0,0,0,0,0,0,0,0,0,0,0,0,0,0,0,0,0,0,0,0,0,0,0,0,0,0,0,0,0,0,0,0,0,0,0,0,0,0,0,0,0,0,2.5138,2.514,0,2.5277,2.5279,2.528,2.5287,2.5285,2.5283,2.5282,2.5428,2.5434,2.5439,0,0,0,0,0,0,0,0,0,0,0,0,0,2.4878,2.4883,2.5138,2.514,2.5141,2.5277,2.5279,2.5281,2.5287,2.5285,2.5283,2.5281,2.5426,2.5433,2.5439,0,0,0,0,0,0,0,0,0,0,0,0,0,2.5002,2.4885,2.5138,2.5161,2.5164,2.5277,2.5279,2.5281,2.5287,2.5285,2.5282,2.528,2.5424,2.5432,2.544,2.5541,0,0,2.5465,2.5469,0,0,0,0,0,0,0,0,2.4995,2.5011,2.5156,2.5159,2.5163,2.5262,2.5241,2.5368,2.5288,2.5241,2.5282,2.5279,2.5375,2.5387,2.5419,2.5547,2.5554,2.5466,2.5471,2.5474,2.5477,0,0,0,0,0,0,0,2.4986,2.5005,2.5193,2.5158,2.5162,2.5164,2.5179,2.5265,2.532,2.5245,2.5245,2.5262,2.5377,2.5411,2.5422,2.5556,2.5466,2.5473,2.5478,2.5481,2.577,2.5772,0,0,0,0,0,0,2.4973,2.4998,2.5189,2.5197,2.5071,2.5171,2.5188,2.5233,2.5319,2.533,2.5264,2.5261,2.5398,2.5413,2.5428,2.5548,2.5474,2.5482,2.5487,2.5767,2.577,2.5773,0,0,0,0,0,0,2.4967,2.499,2.5183,2.5098,2.5123,2.5178,2.5229,2.5237,2.5271,2.5334,2.5344,2.5288,2.5397,2.5416,2.5511,2.5553,2.5486,2.5493,2.5764,2.5768,2.5772,2.5791,0,0,0,0,0,0,2.496,2.4988,2.5026,2.5099,2.5127,2.5264,2.5232,2.5241,2.5285,2.5283,2.5359,2.537,2.5396,2.5499,2.5519,2.5563,2.55,2.576,2.5766,2.5771,2.5787,2.5795,2.5803,0,0,0,0,0,2.495,2.5028,2.5028,2.5051,2.5176,2.5267,2.5283,2.5311,2.5288,2.5327,2.5367,2.5367,2.5545,2.5509,2.5532,2.5579,2.5758,2.5764,2.577,2.5783,2.5794,2.5802,0,0,0,0,0,0,2.4961,2.5038,2.5039,2.5142,2.5197,2.5267,2.5318,2.5322,2.5386,2.5382,2.5415,2.5432,2.5526,2.5562,2.552,2.5678,2.5649,2.566,2.5651,2.5662,2.5669,2.5658,2.5506,0,0,0,0,0,2.4975,2.5041,2.5105,2.519,2.5217,2.5262,2.5303,2.5319,2.5379,2.5403,2.5449,2.5508,2.5576,2.5621,2.5688,2.5792,2.5808,2.5836,2.5843,2.585,2.5859,2.5913,2.5926,2.5794,2.5794,2.5794,0,0,2.5006,2.5055,2.5096,2.5193,2.5238,2.5305,2.5282,2.5356,2.5406,2.5414,2.5506,2.5542,2.5609,2.5708,2.5754,2.5741,2.5898,2.5858,2.5862,2.5868,2.5921,2.5933,2.5944,2.5798,2.5797,2.5797,0,0,2.5094,2.514,2.5213,2.5258,2.5325,2.5354,2.5372,2.5441,2.5464,2.5556,2.5563,2.5623,2.5742,2.5788,2.5828,2.593,2.5932,2.5951,2.5992,2.6045,2.6055,2.6065,2.6099,2.6111,2.596,2.596,2.5961,0,2.5124,2.5225,2.5252,2.5323,2.5365,2.5373,2.5448,2.549,2.5576,2.5605,2.5589,2.5735,2.5782,2.589,2.5914,2.5947,2.5967,2.5943,2.6052,2.6061,2.607,2.6104,2.6117,2.5962,2.5962,2.5962,2.5962,0,2.5257,2.5326,2.5378,2.5458,2.5506,2.5579,2.5616,2.5661,2.5673,2.5703,2.5796,2.5851,2.5927,2.5955,2.5968,2.6065,2.6054,2.6045,2.6015,2.6084,2.6116,2.6129,2.5965,2.5964,2.5963,2.5963,0,0,2.5358,2.5449,2.5467,2.5502,2.5575,2.563,2.5703,2.5775,2.5812,2.5871,2.5932,2.6031,2.6021,2.6065,2.6084,2.613,2.6205,2.6115,2.6117,2.6128,2.6312,2.6317,2.6332,2.6207,2.6209,2.6212,2.6305,0,2.5453,2.5581,2.5605,2.5716,2.578,2.5787,2.585,2.5901,2.5931,2.599,2.6024,2.6092,2.6075,2.6101,2.6148,2.6186,2.6242,2.618,2.6263,2.6266,2.6244,2.6349,2.6356,2.6441,2.6318,2.632,2.6322,0,2.5583,2.5641,2.5757,2.5818,2.5846,2.5902,2.5969,2.6025,2.6083,2.6102,2.6149,2.6161,2.6236,2.6204,2.6307,2.6264,2.6299,2.6323,2.6327,2.6335,2.6297,2.6358,2.647,2.6482,2.6342,2.634,2.6339,0,2.5641,2.575,2.5833,2.5863,2.5937,2.5975,2.6008,2.6064,2.6105,2.6164,2.6191,2.6259,2.6295,2.6348,2.6377,2.6351,2.6477,2.6448,2.6494,2.6493,2.652,2.6518,2.6637,2.6545,2.6545,2.6545,2.6545,0,2.5745,2.5815,2.5859,2.591,2.5989,2.6016,2.6093,2.6126,2.6174,2.6231,2.6243,2.6296,2.6333,2.6392,2.6416,2.6496,2.6513,2.653,2.6535,2.6528,2.6526,2.6551,2.6545,2.6548,2.6548,2.6547,2.6546,0,2.5824,2.5857,2.5947,2.6008,2.6025,2.608,2.6133,2.6183,2.6211,2.6283,2.6302,2.6348,2.6417,2.6452,2.6539,2.6555,2.6645,2.6647,2.6624,2.6626,2.6669,2.6664,2.6809,2.6828,2.6724,2.6725,2.6726,0,2.5888,2.5941,2.6007,2.6045,2.6078,2.614,2.618,2.6209,2.6251,2.6319,2.636,2.6429,2.6486,2.6596,2.6637,2.6703,2.6706,2.6752,2.6717,2.6706,2.6705,2.67,2.6705,2.6759,2.676,2.676,2.6761,0,2.5995,2.6008,2.6066,2.6128,2.6176,2.6227,2.6278,2.6309,2.6345,2.6392,2.6461,2.6505,2.6592,2.666,2.6728,2.6762,2.6768,2.6772,2.6786,2.6778,2.6762,2.6769,2.664,2.6768,2.6768,2.6767,2.6767,2.6766,2.6068,2.6114,2.6166,2.623,2.627,2.6316,2.6364,2.6398,2.6456,2.6527,2.654,2.6613,2.6668,2.6759,2.6795,2.6853,2.6843,2.6864,2.6869,2.6873,2.6874,2.6753,2.6866,2.6866,2.6866,2.6866,2.6866,0,2.6174,2.6207,2.6265,2.6333,2.6382,2.6381,2.6436,2.6477,2.6541,2.659,2.6644,2.6723,2.6788,2.6833,2.6899,2.6937,2.694,2.6953,2.695,2.6957,2.688,2.686,2.6948,2.6948,2.6948,2.6948,2.6948,2.6948,2.6235,2.6313,2.6331,2.6428,2.6461,2.6531,2.6562,2.6604,2.6643,2.673,2.6783,2.6811,2.6858,2.6927,2.6987,2.6998,2.7022,2.7034,2.7045,2.6972,2.6963,2.6955,2.6936,2.7039,2.7039,2.7117,2.7118,2.7119]},{"header":{"parameterUnit":"m.s-1","parameterCategory":1,"la1":30.2991,"la2":30.254,"lo1":-89.0895,"lo2":-89.0444,"dy":0.0017,"dx":0.0017,"nx":28,"ny":28,"refTime":"2024-06-08T09:00:00:Z","depth":0,"parameterNumber":3,"parameterNumberName":"V-component_of_WINDS"},"data":[0,0,0,0,0,0,0,0,0,0,0,0,0,0,0,0,0,0,0,0,0,0,0,0,0,0,0,0,0,0,0,0,0,0,0,0,0,0,0,0,0,0,0,0,0,0,0,0,0,0,0,0,0,0,0,0,0,0,0.1458,0.1458,0,0.1481,0.1481,0.1481,0.1467,0.1466,0.1466,0.1465,0.1491,0.1492,0.1494,0,0,0,0,0,0,0,0,0,0,0,0,0,0.1403,0.1404,0.1458,0.1458,0.1459,0.1481,0.1481,0.1481,0.1467,0.1466,0.1466,0.1465,0.1491,0.1492,0.1494,0,0,0,0,0,0,0,0,0,0,0,0,0,0.1427,0.1405,0.1458,0.1454,0.1454,0.1481,0.1481,0.1482,0.1467,0.1466,0.1465,0.1464,0.149,0.1492,0.1494,0.1527,0,0,0.15,0.1501,0,0,0,0,0,0,0,0,0.1426,0.1429,0.1454,0.1454,0.1454,0.147,0.1471,0.1497,0.1468,0.1462,0.1465,0.1464,0.1485,0.1487,0.1494,0.1528,0.1529,0.15,0.1501,0.1502,0.1503,0,0,0,0,0,0,0,0.1424,0.1428,0.1467,0.1455,0.1455,0.1452,0.1454,0.1476,0.1479,0.1463,0.1462,0.1465,0.1485,0.1492,0.1494,0.1529,0.15,0.1502,0.1503,0.1504,0.159,0.1591,0,0,0,0,0,0,0.1422,0.1427,0.1466,0.1468,0.1437,0.1453,0.1456,0.1466,0.1479,0.148,0.1465,0.1464,0.1489,0.1492,0.1495,0.1534,0.1502,0.1504,0.1505,0.1589,0.159,0.1591,0,0,0,0,0,0,0.1421,0.1426,0.1465,0.1447,0.1452,0.1455,0.1467,0.1467,0.1474,0.1481,0.1482,0.1472,0.1488,0.1493,0.1518,0.1535,0.1505,0.1507,0.1588,0.1589,0.1591,0.1612,0,0,0,0,0,0,0.142,0.1426,0.1438,0.1447,0.1453,0.1488,0.1468,0.1468,0.1477,0.1476,0.1487,0.1488,0.1488,0.1516,0.152,0.1537,0.1508,0.1586,0.1588,0.159,0.161,0.1614,0.1618,0,0,0,0,0,0.1418,0.1444,0.1439,0.1444,0.1468,0.1489,0.1492,0.149,0.1479,0.1491,0.1495,0.1488,0.1532,0.1518,0.1524,0.1541,0.1585,0.1588,0.159,0.1608,0.1613,0.1618,0,0,0,0,0,0,0.1437,0.1445,0.1439,0.1469,0.1478,0.1486,0.1502,0.1496,0.151,0.1508,0.1505,0.1508,0.1535,0.1541,0.1526,0.1573,0.1557,0.156,0.1568,0.1573,0.1577,0.1576,0.151,0,0,0,0,0,0.1445,0.1461,0.1467,0.1492,0.1497,0.1499,0.1508,0.1505,0.1515,0.152,0.1526,0.1536,0.1552,0.1563,0.1578,0.161,0.1612,0.1624,0.1628,0.1632,0.1635,0.1652,0.1657,0.16,0.16,0.16,0,0,0.1461,0.1467,0.1477,0.1496,0.1503,0.152,0.1502,0.1521,0.1534,0.1523,0.1547,0.1552,0.1564,0.1592,0.1606,0.1598,0.1651,0.1635,0.1637,0.1639,0.1655,0.166,0.1665,0.1601,0.1601,0.1601,0,0,0.1499,0.1505,0.1527,0.1533,0.1544,0.1545,0.155,0.1559,0.1561,0.1585,0.1577,0.1592,0.162,0.1629,0.1637,0.1676,0.167,0.1681,0.1702,0.1719,0.1723,0.1727,0.1741,0.1746,0.1684,0.1684,0.1685,0,0.1518,0.1543,0.1539,0.1558,0.1566,0.1556,0.1578,0.1585,0.16,0.1606,0.1597,0.1631,0.1638,0.1668,0.1678,0.1685,0.1691,0.168,0.1723,0.1727,0.173,0.1744,0.1749,0.1686,0.1686,0.1685,0.1685,0,0.1565,0.1582,0.1599,0.1612,0.1622,0.1643,0.1642,0.1653,0.165,0.1651,0.1676,0.1684,0.17,0.1707,0.1704,0.1737,0.1732,0.1723,0.1707,0.1737,0.175,0.1755,0.1688,0.1687,0.1687,0.1686,0,0,0.1618,0.1628,0.1634,0.164,0.165,0.1663,0.1683,0.1697,0.1707,0.1717,0.1734,0.1757,0.1748,0.1757,0.1755,0.1769,0.18,0.1758,0.1758,0.1766,0.1836,0.1843,0.1849,0.1795,0.1796,0.1797,0.1835,0,0.1656,0.169,0.1687,0.1719,0.1735,0.1724,0.1741,0.175,0.1751,0.1765,0.1768,0.1784,0.1771,0.1776,0.179,0.1793,0.1814,0.179,0.1811,0.1812,0.1809,0.1856,0.1864,0.19,0.184,0.1841,0.1842,0,0.1706,0.1717,0.1751,0.1758,0.1764,0.178,0.1792,0.1806,0.1814,0.1815,0.1824,0.1819,0.1839,0.1822,0.1849,0.1833,0.1842,0.1844,0.1846,0.1848,0.1829,0.186,0.1911,0.1917,0.1849,0.1849,0.1848,0,0.1741,0.1764,0.1787,0.1793,0.1801,0.1812,0.1816,0.1824,0.1833,0.1844,0.185,0.1864,0.1872,0.1883,0.1881,0.1869,0.191,0.1892,0.1911,0.1911,0.1921,0.192,0.1974,0.1925,0.1925,0.1925,0.1925,0,0.1785,0.1806,0.1803,0.1817,0.184,0.1836,0.1859,0.1862,0.1869,0.1884,0.1875,0.189,0.1887,0.1901,0.1901,0.1923,0.1927,0.1928,0.1928,0.1929,0.1929,0.1935,0.1933,0.1926,0.1926,0.1926,0.1925,0,0.1829,0.1827,0.1852,0.1857,0.1859,0.1876,0.188,0.1894,0.1894,0.1913,0.1917,0.1919,0.1935,0.1934,0.1953,0.1953,0.1981,0.1977,0.1978,0.1977,0.1996,0.1994,0.2056,0.2064,0.2009,0.201,0.201,0,0.1857,0.1873,0.1879,0.1888,0.1893,0.1907,0.1916,0.1912,0.1921,0.1932,0.1944,0.1959,0.1971,0.1997,0.2,0.2014,0.2012,0.2032,0.2014,0.2014,0.2012,0.2012,0.2013,0.2036,0.2037,0.2037,0.2038,0,0.1908,0.1906,0.1918,0.193,0.194,0.195,0.1959,0.1966,0.1963,0.1974,0.199,0.1999,0.2017,0.2033,0.2046,0.2051,0.2044,0.2043,0.2048,0.205,0.205,0.2051,0.1988,0.2042,0.2042,0.2041,0.2041,0.2041,0.1945,0.1958,0.1964,0.1978,0.1984,0.1992,0.2005,0.2006,0.2019,0.2033,0.203,0.2048,0.2056,0.2072,0.2078,0.2092,0.2085,0.2092,0.2094,0.2096,0.2098,0.2047,0.2095,0.2094,0.2094,0.2094,0.2094,0,0.1995,0.1998,0.2011,0.2023,0.2034,0.2025,0.2034,0.2044,0.2059,0.2066,0.2078,0.2096,0.211,0.2114,0.2127,0.2138,0.2135,0.2142,0.2141,0.2143,0.2104,0.2098,0.2144,0.2144,0.2144,0.2144,0.2144,0.2144,0.2023,0.2045,0.2043,0.2068,0.2071,0.2088,0.2094,0.2101,0.2107,0.2127,0.2138,0.214,0.2146,0.216,0.2172,0.2173,0.2179,0.2187,0.2186,0.215,0.2145,0.2141,0.2135,0.2188,0.2188,0.2223,0.2224,0.2224]}]]